Find Starlink 6055

NORAD ID: 56467 Int'l Des: 2023-064 Owner: SPXS Country: US Constellation: starlink operational
LEOCIRCULAR

实时位置

正在加载3D地球...

关于 Starlink 6055

正在加载描述...

即将过境

Passes for default location (London). Set your location on the main map for personalized predictions.

高度历史

Loading altitude history...

两行轨道根数

1 56467U 23064V 26125.81889170 .00000455 00000-0 45904-4 0 9991
2 56467 69.9995 340.5377 0002481 269.6926 90.3949 14.98331813164298
Epoch: May 5, 2026 • Age: 16 hours

当前状态

高度 574.6 km
速度 7.57 km/s
星下点 -1.20°S, 60.98°W
发射日期 May 10, 2023
运行时间 2.9 years
类型 internet

技术详情

分类 Payload
质量 305.00 kg
干质量 290.00 kg
总质量 305.00 kg
长度 0.20 m
直径 2.80 m
跨度 9.00 m
形状 Box + pan
制造商 SPXS
平台类型 Starlink
阶段状态 In Orbit
所有者/国家 SPXS/US

Most Searched